SV1IW Athens current weather conditions

sailwx.info

Wind from 333 at 0 knots gusting 2

Air temperature 22.8° C
Dewpoint 11.5° C

Last reported at 2015-May-04 21:00 UTC.
Time now 2015-May-06 09:27 UTC

Location: N 37°58' E 023°43'.
View on Google Maps.

See reports from other nearby stations

  
Tides and Currents Weather Stations Pressure Air Temp Water Temp Dewpoint Dewpoint Depression Visibility Wind Speed Wind Dir Waves Ship Positions
date/time (UTC)wind fromknots sea level pressurealtimeterstation pressurevisibilityair tempwater tempwave heightnotes
2015-May-04 21:00 333 0 gusting 2 22.8
2015-May-04 20:30 315 22.8
2015-May-04 20:00 315 22.8
2015-May-04 19:30 315 22.8
2015-May-04 19:00 254 22.8
2015-May-04 18:30 252 2 gusting 5 22.2
2015-May-04 18:00 237 1 gusting 5 22.2
2015-May-04 17:30 259 4 gusting 5 22.8
2015-May-04 17:00 193 3 gusting 6 22.8
2015-May-04 16:30 230 4 gusting 7 22.8
2015-May-04 16:00 222 4 gusting 6 24.4
2015-May-04 15:30 208 4 gusting 6 28.3
2015-May-04 15:00 262 5 gusting 8 29.4
2015-May-04 14:30 249 5 gusting 7 30.6
2015-May-04 14:00 232 5 gusting 8 33.9
2015-May-04 13:30 212 5 gusting 8 38.3
2015-May-04 13:00 242 5 gusting 10 37.2
2015-May-04 12:30 178 5 gusting 8 37.8
2015-May-04 12:00 251 4 gusting 8 34.4
2015-May-04 11:30 204 5 gusting 10 25.0
2015-May-04 11:00 244 4 gusting 8 25.0
2015-May-04 10:30 173 4 gusting 10 24.4
2015-May-04 10:00 247 4 gusting 7 23.9
2015-May-04 09:30 250 5 gusting 8 23.9
2015-May-04 09:00 204 4 gusting 6 23.3